Tracking 19562 objects as of 24-Mar-2019
HD Live streaming from Space Station
objects crossing your sky now

OPS 1920

Track OPS 1920 now!
10-day predictions
OPS 1920 is classified as:


NORAD ID: 2481
Int'l Code: 1966-089A
Perigee: 3,665.7 km
Apogee: 3,730.4 km
Inclination: 89.7 °
Period: 167.6 minutes
Semi major axis: 10069 km
RCS: 19.5528 m2 (large)
Launch date: October 5, 1966
Source: United States (US)
Launch site: AIR FORCE WESTERN TEST RANGE (AFWTR)
aabbcc
Your satellite tracking list
Your tracking list is empty




NASA's NSSDC Master Catalog

Two Line Element Set (TLE):
1  2481U 66089A   19083.02481642 -.00000001  00000-0 -13686-2 0  9991
2  2481  89.6922  53.5226 0032144  80.5707 279.8776  8.59252363645966
Source of the keplerian elements: AFSPC